Regional Weather Roundup
Issued by NWS Cleveland, OH

Home | Current Version | Previous Version | Graphics & Text | Print | Product List | Glossary On
Versions: 1 2 3 4 5 6 7 8 9 10 11 12 13 14 15 16 17 18 19 20 21 22 23 24 25 26 27 28 29 30 31 32 33 34 35 36 37 38 39 40 41 42 43 44 45 46 47 48 49 50
000
ASUS41 KCLE 272100
RWRCLE
OHIO REGIONAL WEATHER ROUNDUP
NATIONAL WEATHER SERVICE WILMINGTON, OH
500 PM EDT WED JUL 27 2016

NOTE: "FAIR" INDICATES FEW OR NO CLOUDS BELOW 12,000 FEET WITH NO
SIGNIFICANT WEATHER AND/OR OBSTRUCTIONS TO VISIBILITY.

OHZ001>008-015>018-024>027-034-035-043-044-272200-
   NORTHWEST OHIO

CITY           SKY/WX    TMP DP  RH WIND       PRES   REMARKS
DEFIANCE       FAIR      90  61  37 S5        29.94F HX  90
FINDLAY        FAIR      90  56  31 VRB5      29.94F
TOLEDO EXPRESS FAIR      88  62  41 VRB6      29.95F
TOLEDO EXEC    CLOUDY    89  59  36 SW6       29.95F
LIMA           FAIR      88  65  46 NE8       29.96F HX  90
$$

OHZ009>014-019>023-028>033-038-089-272200-
   NORTHEAST OHIO

CITY           SKY/WX    TMP DP  RH WIND       PRES   REMARKS
CLE-HOPKINS    FAIR      89  57  33 N13       29.98F
CLE-LAKEFRONT  FAIR      84  66  54 N8        29.95F
CUY CO. ARPT   MOSUNNY  N/A N/A N/A E12       29.98F
LORAIN-ELYRIA  FAIR      86  61  42 N7        29.96F
ASHTABULA      FAIR      84  62  47 N8        29.98F
AKRON-CANTON   FAIR      88  57  34 VRB3      29.97F
WOOSTER        NOT AVBL
MANSFIELD      PTSUNNY   91  58  32 CALM      29.97F HX  90
YOUNGSTOWN     PTSUNNY   86  59  39 NE6       29.97F
$$

OHZ042-051>053-060>062-070>072-077>081-272200-
  SOUTHWEST OHIO

CITY           SKY/WX    TMP DP  RH WIND       PRES   REMARKS
CINC-COVINGTON PTSUNNY   85  71  63 VRB3      29.97F HX  90
CINC-LUNKEN    FAIR      86  71  60 W5        29.95F HX  91
HAMILTON       FAIR      88  67  49 MISG      29.96F HX  91
DAYTON         NOT AVBL
WRIGHT-PAT AFB NOT AVBL
DAYTON GENERAL FAIR      89  61  38 W5        29.95F
WILMINGTON     FAIR      90  66  45 W8        29.96F HX  92
$$

OHZ036-037-039>041-045>050-054>059-063>069-073>076-082>088-272200-
  CENTRAL AND SOUTHEAST OHIO

CITY           SKY/WX    TMP DP  RH WIND       PRES   REMARKS
COLUMBUS       PTSUNNY   90  65  43 E6        29.94F HX  92
OSU AIRPORT    PTSUNNY   88  65  46 N3        29.95F HX  90
BOLTON FIELD     N/A     90  70  51 MISG        N/A  HX  95
RICKENBACK AFB NOT AVBL
NEWARK         FAIR      87  66  49 SW3       29.95F
MARION         FAIR      89  56  32 VRB5      29.96F
LANCASTER      FAIR      88  70  55 W8        29.95F HX  93
ZANESVILLE     FAIR      92  66  42 W6        29.95F HX  94
NEW PHILLY     FAIR      95  58  28 W8        29.94F HX  94
$$




USA.gov is the U.S. government's official web portal to all federal, state and local government web resources and services.